Weather History for KCBE - January, 2013

Change the Weather History Date:

Monday, January 14, 2013

  Actual Average (KMRB) Record (KMRB)
Temperature  
Mean Temperature 43 °F 31 °F  
Max Temperature 53 °F 39 °F 80 °F (1932)
Min Temperature 33 °F 22 °F 4 °F (1929)
Degree Days  
Heating Degree Days 22 34  
Month to date heating degree days 476  
Since 1 July heating degree days 2502  
Cooling Degree Days 0 0  
Month to date cooling degree days 0  
Year to date cooling degree days 0  
Moisture  
Dew Point 39 °F    
Average Humidity 82    
Maximum Humidity 100    
Minimum Humidity 61    
Precipitation  
Precipitation 0.00 in 0.08 in 1.66 in (1968)
Month to date precipitation 1.05  
Year to date precipitation 1.05  
Sea Level Pressure  
Sea Level Pressure 30.21 in    
Wind  
Wind Speed 5 mph (NNW)    
Max Wind Speed 12 mph    
Max Gust Speed 29 mph    
Visibility 8 miles    
Events      
T = Trace of Precipitation, MM = Missing Value Source: NWS Daily Summary

Daily Weather History Graph

Daily Weather History Graph

Search for Another Location

Airport or City:

Trip Planner

Search our weather history database for the weather conditions in past years. The results will help you decide how hot, cold, wet, or windy it might be!

Date:

Astronomy

Jan. 14, 2013 Rise Set
Actual Time 7:34 AM EST 5:14 PM EST
Civil Twilight 7:04 AM EST 5:44 PM EST
Nautical Twilight 6:31 AM EST 6:17 PM EST
Astronomical Twilight 5:59 AM EST 6:49 PM EST
Moon 9:07 AM EST (1/14) 8:57 PM EST (1/14)
Length of Visible Light 10h 39m
Length of Day
9h 40m
Waxing Crescent, 11% of the Moon is Illuminated
Jan 14
Waxing Crescent
Jan 18
First Quarter
Jan 26
Full
Feb 3
Last Quarter
Feb 10
New

Hourly Weather History & Observations

Time (EST) Temp. Windchill Dew Point Humidity Pressure Visibility Wind Dir Wind Speed Gust Speed Precip Events Conditions
12:11 AM 48.2 °F - 48.2 °F 100% 29.97 in 5.0 mi ENE 3.5 mph - N/A   Mostly Cloudy
12:32 AM 48.2 °F - 48.2 °F 100% 30.01 in 5.0 mi NNW 3.5 mph - N/A   Mostly Cloudy
12:53 AM 50.0 °F - 50.0 °F 100% 30.02 in 5.0 mi ENE 10.4 mph - N/A   Overcast
1:14 AM 48.2 °F - 48.2 °F 100% 29.99 in 5.0 mi WSW 6.9 mph - N/A   Mostly Cloudy
1:36 AM 48.2 °F - 48.2 °F 100% 29.98 in 3.0 mi WSW 4.6 mph - N/A   Unknown
1:57 AM 50.0 °F - 50.0 °F 100% 29.99 in 5.0 mi South 4.6 mph - N/A   Scattered Clouds
2:18 AM 50.0 °F - 50.0 °F 100% 30.00 in 5.0 mi Calm Calm - N/A   Clear
2:39 AM 48.2 °F - 48.2 °F 100% 30.00 in 3.0 mi Calm Calm - N/A   Unknown
2:40 AM 48.2 °F - 48.2 °F 100% 30.01 in 3.0 mi Calm Calm - N/A   Unknown
3:01 AM 48.2 °F - 48.2 °F 100% 30.00 in 2.5 mi North 3.5 mph - N/A   Unknown
3:22 AM 50.0 °F - 50.0 °F 100% 30.01 in 4.0 mi Calm Calm - N/A   Mostly Cloudy
3:43 AM 48.2 °F - 48.2 °F 100% 30.01 in 3.0 mi Calm Calm - N/A   Overcast
4:05 AM 48.2 °F - 48.2 °F 100% 30.01 in 1.8 mi Calm Calm - N/A   Overcast
4:26 AM 48.2 °F - 48.2 °F 100% 30.01 in 2.0 mi NNW 3.5 mph - N/A   Overcast
4:47 AM 51.8 °F - 51.8 °F 100% 30.03 in 10.0 mi NW 11.5 mph 23.0 mph N/A   Mostly Cloudy
5:08 AM 53.6 °F - 50.0 °F 88% 30.04 in 10.0 mi NNW 10.4 mph 23.0 mph N/A   Overcast
5:30 AM 51.8 °F - 46.4 °F 82% 30.08 in 10.0 mi NW 11.5 mph 28.8 mph N/A   Overcast
5:51 AM 50.0 °F - 44.6 °F 82% 30.10 in 10.0 mi North 10.4 mph 23.0 mph N/A   Overcast
6:12 AM 50.0 °F - 44.6 °F 82% 30.12 in 10.0 mi NNW 10.4 mph - N/A   Overcast
6:33 AM 50.0 °F - 42.8 °F 76% 30.15 in 10.0 mi NNW 6.9 mph 17.3 mph N/A   Overcast
6:55 AM 50.0 °F - 42.8 °F 76% 30.16 in 10.0 mi ENE 4.6 mph - N/A   Overcast
7:16 AM 48.2 °F - 42.8 °F 82% 30.18 in 10.0 mi Calm Calm - N/A   Overcast
7:37 AM 50.0 °F - 42.8 °F 76% 30.19 in 10.0 mi Calm Calm - N/A   Overcast
7:58 AM 50.0 °F - 41.0 °F 71% 30.20 in 10.0 mi NNW 4.6 mph - N/A   Overcast
8:20 AM 48.2 °F - 41.0 °F 76% 30.22 in 10.0 mi WNW 11.5 mph 20.7 mph N/A   Mostly Cloudy
8:41 AM 48.2 °F - 37.4 °F 66% 30.23 in 10.0 mi WNW 5.8 mph - N/A   Mostly Cloudy
9:02 AM 50.0 °F - 37.4 °F 62% 30.26 in 10.0 mi WNW 8.1 mph - N/A   Overcast
9:23 AM 46.4 °F 41.9 °F 37.4 °F 71% 30.27 in 10.0 mi WNW 9.2 mph 23.0 mph N/A   Mostly Cloudy
9:45 AM 46.4 °F 42.4 °F 37.4 °F 71% 30.28 in 10.0 mi NW 8.1 mph - N/A   Overcast
10:06 AM 46.4 °F 42.4 °F 37.4 °F 71% 30.28 in 10.0 mi North 8.1 mph - N/A   Overcast
10:27 AM 44.6 °F 41.4 °F 37.4 °F 76% 30.30 in 10.0 mi NW 5.8 mph 9.2 mph N/A   Overcast
10:48 AM 44.6 °F 40.7 °F 37.4 °F 76% 30.28 in 10.0 mi WNW 6.9 mph - N/A   Mostly Cloudy
11:10 AM 44.6 °F 40.7 °F 37.4 °F 76% 30.27 in 10.0 mi NNW 6.9 mph 17.3 mph N/A   Mostly Cloudy
11:31 AM 44.6 °F 39.7 °F 37.4 °F 76% 30.28 in 10.0 mi West 9.2 mph - N/A   Mostly Cloudy
12:13 PM 44.6 °F 39.7 °F 35.6 °F 71% 30.26 in 10.0 mi NW 9.2 mph 16.1 mph N/A   Mostly Cloudy
12:34 PM 44.6 °F 43.1 °F 35.6 °F 71% 30.26 in 10.0 mi WNW 3.5 mph - N/A   Mostly Cloudy
12:56 PM 44.6 °F 39.7 °F 33.8 °F 66% 30.24 in 10.0 mi NNW 9.2 mph - N/A   Scattered Clouds
1:17 PM 44.6 °F 42.2 °F 33.8 °F 66% 30.25 in 10.0 mi NNW 4.6 mph - N/A   Scattered Clouds
1:38 PM 44.6 °F 40.7 °F 33.8 °F 66% 30.25 in 10.0 mi NNW 6.9 mph - N/A   Scattered Clouds
1:59 PM 46.4 °F 44.3 °F 33.8 °F 62% 30.25 in 10.0 mi North 4.6 mph - N/A   Scattered Clouds
2:21 PM 46.4 °F 43.5 °F 33.8 °F 62% 30.24 in 10.0 mi North 5.8 mph - N/A   Mostly Cloudy
2:42 PM 46.4 °F 42.4 °F 33.8 °F 62% 30.23 in 10.0 mi NNW 8.1 mph - N/A   Overcast
3:03 PM 44.6 °F 40.2 °F 32.0 °F 61% 30.25 in 10.0 mi NNW 8.1 mph - N/A   Scattered Clouds
3:24 PM 44.6 °F - 32.0 °F 61% 30.22 in 10.0 mi Calm Calm - N/A   Clear
3:46 PM 44.6 °F 42.2 °F 32.0 °F 61% 30.23 in 10.0 mi North 4.6 mph - N/A   Clear
4:07 PM 44.6 °F 41.4 °F 32.0 °F 61% 30.24 in 10.0 mi North 5.8 mph - N/A   Clear
4:28 PM 44.6 °F 40.7 °F 32.0 °F 61% 30.26 in 10.0 mi NNW 6.9 mph - N/A   Scattered Clouds
4:49 PM 44.6 °F 41.4 °F 32.0 °F 61% 30.26 in 10.0 mi NNW 5.8 mph - N/A   Overcast
5:32 PM 44.6 °F 40.7 °F 32.0 °F 61% 30.29 in 10.0 mi North 6.9 mph 16.1 mph N/A   Overcast
5:53 PM 44.6 °F 39.7 °F 32.0 °F 61% 30.32 in 10.0 mi NNW 9.2 mph - N/A   Overcast
6:14 PM 42.8 °F 37.5 °F 32.0 °F 66% 30.34 in 10.0 mi NNW 9.2 mph - N/A   Overcast
6:36 PM 42.8 °F 38.0 °F 32.0 °F 66% 30.33 in 10.0 mi NNW 8.1 mph - N/A   Overcast
6:57 PM 42.8 °F 38.6 °F 32.0 °F 66% 30.33 in 10.0 mi NNW 6.9 mph - N/A   Overcast
7:18 PM 41.0 °F - 33.8 °F 76% 30.34 in 7.0 mi Calm Calm - N/A   Overcast
7:39 PM 41.0 °F - 35.6 °F 81% 30.35 in 7.0 mi Calm Calm - N/A   Overcast
8:01 PM 39.2 °F - 37.4 °F 93% 30.36 in 7.0 mi Calm Calm - N/A   Overcast
8:22 PM 39.2 °F - 37.4 °F 93% 30.35 in 7.0 mi Calm Calm - N/A   Overcast
8:43 PM 39.2 °F - 37.4 °F 93% 30.36 in 10.0 mi Calm Calm - N/A   Scattered Clouds
9:04 PM 37.4 °F - 37.4 °F 100% 30.36 in 7.0 mi Calm Calm - N/A   Clear
9:25 PM 37.4 °F - 37.4 °F 100% 30.36 in 7.0 mi Calm Calm - N/A   Scattered Clouds
9:47 PM 37.4 °F - 37.4 °F 100% 30.36 in 5.0 mi Calm Calm - N/A   Mostly Cloudy
10:08 PM 37.4 °F 34.9 °F 37.4 °F 100% 30.35 in 4.0 mi ESE 3.5 mph - N/A   Overcast
10:29 PM 35.6 °F 32.8 °F 35.6 °F 100% 30.34 in 4.0 mi ESE 3.5 mph - N/A   Overcast
10:51 PM 33.8 °F - 33.8 °F 100% 30.32 in 5.0 mi Calm Calm - N/A   Overcast
11:12 PM 33.8 °F - 33.8 °F 100% 30.32 in 5.0 mi Calm Calm - N/A   Overcast
11:33 PM 35.6 °F - 35.6 °F 100% 30.32 in 5.0 mi Calm Calm - N/A   Overcast
11:54 PM 33.8 °F - 33.8 °F 100% 30.30 in 5.0 mi Calm Calm - N/A   Overcast